Location: Asheville, NC
(35.6000°N, 82.5500°W)
Time: 00:43:41
(UTC-04:00)

STRAND 1 - Pass Details

Date: 12 March 2018
Orbit: 769 x 781 km, 98.5° (Epoch: 18 June)

Event Time Altitude Azimuth Distance (km) Brightness Sun altitude
Rises 21:13:35 0° 10° (N) 3,261 ? -20.7°
Reaches altitude 10° 21:15:54 10° 8° (N) 2,328 ? -21.2°
Maximum altitude 21:21:01 72° 285° (WNW) 813 ? -22.2°
Drops below altitude 10° 21:26:05 10° 202° (SSW) 2,306 ? -23.2°
Sets 21:28:22 0° 200° (SSW) 3,227 ? -23.6°
